Location: Mount Wilson Observatory
(34.2257°N, 118.0571°W)
Time: 21:00:39
(UTC-07:00)

ATLAS 3B CENTAUR R/B - Visible Passes

Search period start: 30 October 2014 00:00
Search period end: 08 November 2014 23:00
Orbit: 231 x 8328 km, 28.1° (Epoch: 30 October)

Date Brightness Start Highest point End Pass type
(mag) Time Alt. Az. Time Alt. Az. Time Alt. Az.
30 Oct 5.0 17:46:07 10° W 18:29:07 72° S 18:40:15 10° ESE visible
30 Oct 4.6 21:31:54 10° W 21:43:18 30° SW 21:43:18 30° SW visible
31 Oct 4.9 18:09:59 10° W 18:50:04 71° S 19:00:11 11° ESE visible
31 Oct 5.0 21:54:19 10° W 22:02:34 22° WSW 22:02:34 22° WSW visible
01 Nov 4.7 18:33:16 10° W 19:10:23 68° SSW 19:19:04 16° ESE visible
01 Nov 5.4 22:16:32 10° W 22:21:25 16° WSW 22:21:25 16° WSW visible
02 Nov 4.6 17:55:56 10° W 18:30:06 64° SSW 18:37:33 20° SE visible
02 Nov 5.7 21:39:33 10° WSW 21:39:50 10° WSW 21:39:50 10° WSW visible
03 Nov 4.4 18:17:55 10° W 18:49:11 59° SSW 18:55:36 24° SE visible
04 Nov 4.4 18:39:14 10° W 19:07:39 52° SSW 19:13:13 27° SSE visible
05 Nov 4.5 18:59:55 10° W 19:25:29 45° SW 19:30:26 28° SSE visible
06 Nov 4.6 19:20:01 10° W 19:42:42 39° SW 19:47:14 27° S visible
07 Nov 4.8 19:39:36 10° W 19:59:17 32° SW 20:03:37 24° S visible
08 Nov 5.0 19:58:47 10° W 20:15:18 26° SW 20:19:35 20° SSW visible
